Weather History for Ionia, MI

Change the Weather History Date:

Saturday, October 13, 2012

  Actual Average (KGRR) Record (KGRR)
Temperature  
Mean Temperature 46 °F 52 °F  
Max Temperature 63 °F 61 °F 87 °F (1975)
Min Temperature 31 °F 43 °F 24 °F (1993)
Degree Days  
Heating Degree Days 18 13  
Month to date heating degree days 147  
Since 1 July heating degree days 299  
Cooling Degree Days 0 0  
Month to date cooling degree days 4  
Year to date cooling degree days 696  
Moisture  
Dew Point 40 °F    
Average Humidity 87    
Maximum Humidity 96    
Minimum Humidity 71    
Precipitation  
Precipitation 0.46 in 0.10 in 1.35 in (1969)
Month to date precipitation 1.41  
Year to date precipitation 30.41  
Snow  
Snow 0.00 in 0.00 in 0.10 in (2006)
Month to date snowfall 0.1  
Since 1 July snowfall 0.1  
Since 1 September snowfall 0.1  
Snow Depth -    
Sea Level Pressure  
Sea Level Pressure 30.08 in    
Wind  
Wind Speed 8 mph (South)    
Max Wind Speed 16 mph    
Max Gust Speed 23 mph    
Visibility 7 miles    
Events Rain    
T = Trace of Precipitation, MM = Missing Value Source: NWS Daily Summary

Daily Weather History Graph

Daily Weather History Graph

Search for Another Location

Airport:

Trip Planner

Search our weather history database for the weather conditions in past years. The results will help you decide how hot, cold, wet, or windy it might be!

Date:

Astronomy

Oct. 13, 2012 Rise Set
Actual Time 7:51 AM EDT 7:00 PM EDT
Civil Twilight 7:23 AM EDT 7:28 PM EDT
Nautical Twilight 6:50 AM EDT 8:01 PM EDT
Astronomical Twilight 6:17 AM EDT 8:34 PM EDT
Moon 5:38 AM EDT (10/13) 5:44 PM EDT (10/13)
Length of Visible Light 12h 05m
Length of Day
11h 08m
Waning Crescent, 5% of the Moon is Illuminated
Oct 13
Waning Crescent
Oct 15
New
Oct 21
First Quarter
Oct 29
Full
Nov 6
Last Quarter

Hourly Weather History & Observations

Time (EDT) Temp. Windchill Dew Point Humidity Pressure Visibility Wind Dir Wind Speed Gust Speed Precip Events Conditions
12:34 AM 33.6 °F 28.4 °F 26.4 °F 75% 30.34 in 10.0 mi SE 5.8 mph - N/A   Clear
12:54 AM 32.5 °F 25.5 °F 26.4 °F 78% 30.33 in 10.0 mi SE 8.1 mph - N/A   Clear
1:14 AM 33.4 °F 27.3 °F 26.6 °F 76% 30.32 in 10.0 mi SSE 6.9 mph - N/A   Clear
1:54 AM 32.0 °F 25.6 °F 26.4 °F 80% 30.30 in 10.0 mi SSE 6.9 mph - N/A   Clear
2:14 AM 35.4 °F 31.5 °F 27.0 °F 71% 30.31 in 10.0 mi South 4.6 mph - N/A   Clear
2:34 AM 33.3 °F 28.9 °F 27.0 °F 78% 30.31 in 10.0 mi South 4.6 mph - N/A   Clear
2:54 AM 31.6 °F 26.0 °F 26.1 °F 80% 30.30 in 10.0 mi SE 5.8 mph - N/A   Clear
3:14 AM 33.1 °F 28.7 °F 27.3 °F 79% 30.30 in 10.0 mi SE 4.6 mph - N/A   Clear
3:34 AM 32.9 °F 27.5 °F 27.9 °F 82% 30.29 in 10.0 mi SSE 5.8 mph - N/A   Clear
3:54 AM 33.8 °F 29.6 °F 28.4 °F 81% 30.29 in 10.0 mi South 4.6 mph - N/A   Clear
4:14 AM 35.2 °F 30.3 °F 28.9 °F 78% 30.28 in 10.0 mi South 5.8 mph - N/A   Clear
4:34 AM 36.7 °F 30.5 °F 29.3 °F 75% 30.27 in 10.0 mi South 8.1 mph - N/A   Clear
4:54 AM 36.3 °F 30.8 °F 30.0 °F 78% 30.27 in 10.0 mi South 6.9 mph - N/A   Clear
5:14 AM 37.0 °F 31.0 °F 30.6 °F 77% 30.26 in 10.0 mi SSE 8.1 mph - N/A   Clear
5:34 AM 37.6 °F 31.6 °F 31.3 °F 78% 30.26 in 10.0 mi South 8.1 mph - N/A   Clear
5:54 AM 39.0 °F 32.8 °F 31.1 °F 73% 30.26 in 10.0 mi South 9.2 mph - N/A   Clear
6:14 AM 38.5 °F 33.4 °F 32.0 °F 78% 30.25 in 10.0 mi South 6.9 mph - N/A   Clear
6:34 AM 39.2 °F 33.6 °F 32.0 °F 75% 30.23 in 10.0 mi SSE 8.1 mph - N/A   Scattered Clouds
6:54 AM 39.2 °F 34.2 °F 32.4 °F 76% 30.22 in 10.0 mi SSE 6.9 mph - N/A   Clear
7:14 AM 40.1 °F 36.9 °F 32.0 °F 73% 30.22 in 10.0 mi South 4.6 mph - N/A   Scattered Clouds
7:34 AM 40.3 °F - 32.4 °F 73% 30.23 in 10.0 mi Calm Calm - N/A   Overcast
7:54 AM 40.8 °F - 32.5 °F 72% 30.23 in 10.0 mi Calm Calm - N/A Rain Rain
8:14 AM 40.3 °F 38.2 °F 34.7 °F 80% 30.23 in 10.0 mi SSE 3.5 mph - N/A Rain Light Rain
8:34 AM 40.1 °F - 35.1 °F 82% 30.24 in 10.0 mi Calm Calm - 0.01 in Rain Rain
8:54 AM 39.6 °F 37.4 °F 35.8 °F 86% 30.25 in 4.0 mi East 3.5 mph - 0.03 in Rain Rain
9:14 AM 39.4 °F 35.2 °F 36.5 °F 89% 30.24 in 7.0 mi SE 5.8 mph - 0.01 in Rain Rain
9:54 AM 39.6 °F 33.5 °F 36.9 °F 90% 30.21 in 7.0 mi SE 9.2 mph - 0.05 in Rain Rain
10:34 AM 39.7 °F 32.3 °F 37.4 °F 91% 30.19 in 2.5 mi SSE 12.7 mph - 0.06 in Rain Rain
10:54 AM 40.1 °F 32.4 °F 37.6 °F 91% 30.17 in 3.0 mi SSE 13.8 mph - 0.12 in Rain Rain
11:14 AM 40.3 °F 33.0 °F 38.3 °F 93% 30.15 in 5.0 mi South 12.7 mph 18.4 mph 0.02 in Rain Rain
11:34 AM 41.0 °F 35.2 °F 39.2 °F 93% 30.13 in 5.0 mi SSE 9.2 mph - 0.06 in Rain Rain
11:54 AM 41.9 °F 35.4 °F 40.3 °F 94% 30.11 in 4.0 mi SSE 11.5 mph 18.4 mph 0.10 in Rain Rain
12:14 PM 42.3 °F 35.9 °F 41.0 °F 95% 30.09 in 7.0 mi SSE 11.5 mph - 0.03 in Rain Light Rain
12:34 PM 43.0 °F 36.8 °F 41.4 °F 94% 30.07 in 10.0 mi SSE 11.5 mph - 0.03 in   Overcast
12:54 PM 43.7 °F 38.6 °F 42.1 °F 94% 30.06 in 10.0 mi SSE 9.2 mph - 0.03 in   Overcast
1:34 PM 44.8 °F 38.0 °F 42.6 °F 92% 30.02 in 10.0 mi SSE 15.0 mph - N/A   Overcast
1:54 PM 45.5 °F 39.6 °F 42.8 °F 90% 30.00 in 10.0 mi SSE 12.7 mph - N/A   Overcast
2:14 PM 46.4 °F 41.9 °F 43.0 °F 88% 30.00 in 10.0 mi South 9.2 mph - N/A   Light Drizzle
2:34 PM 46.9 °F - 42.4 °F 84% 29.99 in 10.0 mi South 15.0 mph - N/A   Overcast
2:54 PM 46.6 °F - 43.2 °F 88% 29.97 in 7.0 mi South 13.8 mph 19.6 mph N/A Rain Rain
3:14 PM 46.8 °F - 43.5 °F 88% 29.95 in 7.0 mi South 13.8 mph 20.7 mph 0.01 in Rain Rain
3:34 PM 46.6 °F - 43.9 °F 90% 29.95 in 7.0 mi South 13.8 mph 20.7 mph 0.04 in Rain Light Rain
3:54 PM 46.6 °F - 44.2 °F 92% 29.94 in 7.0 mi South 12.7 mph 19.6 mph 0.06 in Rain Rain
4:14 PM 46.9 °F - 45.0 °F 93% 29.93 in 5.0 mi South 10.4 mph 17.3 mph 0.02 in Rain Heavy Rain
4:34 PM 47.3 °F - 45.3 °F 93% 29.92 in 7.0 mi South 11.5 mph - 0.04 in Rain Rain
4:54 PM 47.8 °F - 45.9 °F 93% 29.92 in 7.0 mi South 10.4 mph 17.3 mph 0.05 in Rain Light Rain
5:14 PM 48.2 °F - 46.4 °F 93% 29.91 in 7.0 mi South 11.5 mph 16.1 mph N/A Rain Rain
5:34 PM 48.6 °F - 46.9 °F 94% 29.90 in 5.0 mi South 10.4 mph 16.1 mph N/A Rain Rain
5:54 PM 49.1 °F - 47.5 °F 94% 29.89 in 5.0 mi South 11.5 mph - 0.01 in Rain Rain
6:14 PM 49.6 °F - 48.2 °F 95% 29.89 in 5.0 mi South 10.4 mph - N/A   Light Drizzle
6:34 PM 50.0 °F - 48.7 °F 95% 29.87 in 2.0 mi South 13.8 mph 20.7 mph N/A   Overcast
6:54 PM 51.3 °F - 50.2 °F 96% 29.87 in 2.5 mi SSW 11.5 mph - N/A   Drizzle
7:14 PM 52.3 °F - 51.3 °F 96% 29.86 in 4.0 mi SSW 11.5 mph 23.0 mph 0.01 in Rain Rain
7:34 PM 52.9 °F - 51.8 °F 96% 29.83 in 5.0 mi South 15.0 mph 20.7 mph 0.01 in Rain Light Rain
8:34 PM 54.0 °F - 52.9 °F 96% 29.84 in 2.5 mi SSW 11.5 mph - N/A   Overcast
8:54 PM 54.5 °F - 53.1 °F 95% 29.84 in 2.5 mi SSW 10.4 mph - N/A   Overcast
9:14 PM 54.7 °F - 53.6 °F 96% 29.84 in 3.0 mi SSW 11.5 mph - N/A   Overcast
9:54 PM 56.7 °F - 55.6 °F 96% 29.84 in 2.0 mi SW 10.4 mph - N/A Rain Light Rain
10:14 PM 58.1 °F - 57.0 °F 96% 29.84 in 3.0 mi SW 12.7 mph - N/A   Light Drizzle
10:34 PM 59.7 °F - 58.5 °F 96% 29.84 in 4.0 mi SW 16.1 mph 20.7 mph N/A   Overcast
10:54 PM 61.5 °F - 60.1 °F 95% 29.83 in 5.0 mi SW 12.7 mph - N/A   Overcast
11:14 PM 62.6 °F - 60.6 °F 93% 29.83 in 5.0 mi SW 13.8 mph 19.6 mph N/A   Overcast
11:54 PM 63.5 °F - 61.2 °F 92% 29.82 in 7.0 mi SW 13.8 mph 19.6 mph N/A   Overcast